Regional Weather Roundup
Issued by NWS

Home | Current Version | Previous Version | Graphics & Text | Print | Product List | Glossary On
Versions: 1 2 3 4 5 6 7 8 9 10 11 12 13 14 15 16 17 18 19 20 21 22 23 24 25 26 27 28 29 30 31 32 33 34 35 36 37 38 39 40 41 42 43 44 45 46 47 48 49 50
779
ASUS43 KBIS 091610
RWRND

NORTH DAKOTA REGIONAL WEATHER ROUNDUP
NATIONAL WEATHER SERVICE BISMARCK ND
1000 AM CST TUE FEB 09 2016

NOTE: "FAIR" INDICATES FEW OR NO CLOUDS BELOW 12,000 FEET WITH NO
SIGNIFICANT WEATHER AND/OR OBSTRUCTIONS TO VISIBILITY.


NDZ001>003-009>011-017-091700-
NORTHWEST NORTH DAKOTA

CITY           SKY/WX    TMP DP  RH WIND       PRES   REMARKS
WILLISTON      CLOUDY    32  24  72 N12       30.22S
MINOT          CLOUDY    29  10  45 SW14      30.20S WCI  18
MINOT AFB      CLOUDY    26  13  58 CALM      30.19F
$$

NDZ018>021-031>035-040>046-091700-
SOUTHWEST NORTH DAKOTA

CITY           SKY/WX    TMP DP  RH WIND       PRES   REMARKS
BISMARCK       CLOUDY    28  11  48 SW7       30.25S
DICKINSON      CLOUDY    31  21  66 NW12      30.16S
GARRISON         N/A     25  12  58 SW8       30.21S WCI  16
HETTINGER ARPT CLOUDY    28  18  66 S5        30.20S
$$

NDZ004>008-012>016-024-026-027-054-091700-
NORTHEAST NORTH DAKOTA

CITY           SKY/WX    TMP DP  RH WIND       PRES   REMARKS
GRAND FORKS    FLURRIES  11   4  73 N14       30.31R WCI  -5
GRND FRKS AFB  CLOUDY    10   3  72 N10       30.31R WCI  -3
DEVILS LAKE    CLOUDY    16   8  71 NE7       30.26S WCI   6
$$

NDZ022-023-025-028>030-036>039-047>053-091700-
SOUTHEAST NORTH DAKOTA

CITY           SKY/WX    TMP DP  RH WIND       PRES   REMARKS
FARGO          CLOUDY    12   4  70 N12       30.30R WCI  -2
JAMESTOWN      CLOUDY    19   7  59 N7        30.24S WCI  10
$$





USA.gov is the U.S. government's official web portal to all federal, state and local government web resources and services.